User: anonymous   Login
Location: Newark
(48.5667°N, 12.8167°E)
Time: 10:51:52
(UTC+00:00)
Language:

METEOR M2 - Orbit

View from above orbital plane
View from above orbital plane
View from above satellite
View from above satellite

Ground track
Ground track

The orbit data is extracted from the following two-line orbital elements,

1 40069U 14037A   19325.08682675 -.00000051  00000-0 -39180-5 0  9990
2 40069  98.5318   5.2277 0005910 159.2719 200.8713 14.20666782278489
Epoch (UTC): 21 November 2019 02:05:01
Eccentricity: 0.0005910
inclination: 98.5318°
perigee height: 819 km
apogee height: 827 km
right ascension of ascending node: 5.2277°
argument of perigee: 159.2719°
revolutions per day: 14.20666782
mean anomaly at epoch: 200.8713°
orbit number at epoch: 27848

The dashed part of the orbit path shows where the satellite is in the earth's shadow,  

DLR